Stations météo

réclame
Mon MeteoGroup
Lulea/Kallax, Suède (2186): Température de l'air & dewpoint: 15.02.2019 15:00:00 - 21.02.2019 15:00:00 (CET)Lulea/Kallax, Suède (2186): Vitesse du vent & gusts: 15.02.2019 15:00:00 - 21.02.2019 15:00:00 (CET)Lulea/Kallax, Suède (2186): Direction du vent: 15.02.2019 15:00:00 - 21.02.2019 15:00:00 (CET)Lulea/Kallax, Suède (2186): reduced air pressure: 15.02.2019 15:00:00 - 21.02.2019 15:00:00 (CET)Lulea/Kallax, Suède (2186): visibility: 15.02.2019 15:00:00 - 21.02.2019 15:00:00 (CET)Lulea/Kallax, Suède (2186): Quantités de précipitations: 15.02.2019 15:00:00 - 21.02.2019 15:00:00 (CET)
Date & Time tt [°C] td [°C] ff [km/h] ff [knt] fx [km/h] fx [knt] dd ppp [hPa] vv [km] rr [mm]
21.02.2019 15:00:00 -11,3 -17,2 0 0 4 2 N 1028,7 10 0,0
21.02.2019 14:00:00 -11,6 -18,0 4 2 7 4 N 1028,3 10 0,0
21.02.2019 13:00:00 -13,5 -18,1 2 1 11 6 NW 1027,5 10 0,0
21.02.2019 12:00:00 -15,5 -19,6 11 6 14 8 NW 1026,9 10 0,0
21.02.2019 11:00:00 -16,2 -20,2 8 4 11 6 NW 1026,2 10 0,0
21.02.2019 10:00:00 -18,1 -21,4 9 5 11 6 NW 1025,6 10 0,0
21.02.2019 09:00:00 -19,2 -21,8 8 4 11 6 NNW 1024,8 10 0,0
21.02.2019 08:00:00 -19,6 -21,9 5 3 14 8 NNW 1024,2 10 0,0
21.02.2019 07:00:00 -19,0 -21,3 8 4 11 6 NNW 1023,7 10 0,0
21.02.2019 06:00:00 -21,1 -22,9 8 4 14 8 NNW 1023,1 10 0,0
21.02.2019 05:00:00 -18,7 -20,7 11 6 14 8 N 1022,5 10 0,0
21.02.2019 04:00:00 -18,4 -20,4 11 6 14 8 NNW 1021,6 10 0,0
21.02.2019 03:00:00 -17,8 -20,3 13 7 18 10 NW 1021,1 10 0,0
21.02.2019 02:00:00 -16,1 -18,6 9 5 14 8 NW 1020,4 10 0,0
21.02.2019 01:00:00 -15,7 -17,9 9 5 14 8 NNW 1020,2 10 0,0
21.02.2019 00:00:00 -15,8 -18,0 8 4 14 8 NNW 1019,6 10 0,0
20.02.2019 23:00:00 -14,7 -17,5 9 5 22 12 NNW 1019,1 10 0,0
20.02.2019 22:00:00 -13,6 -16,5 18 10 22 12 NNW 1018,4 50 0,0
20.02.2019 21:00:00 -13,9 -16,5 14 8 22 12 NNW 1017,6 50 0,0
20.02.2019 20:00:00 -14,9 -17,4 14 8 18 10 NNW 1016,8 50 0,0
20.02.2019 19:00:00 -13,6 -16,9 11 6 22 12 NNW 1015,9 50 0,0
20.02.2019 18:00:00 -11,8 -15,6 14 8 25 14 NNW 1015,0 50 0,0
20.02.2019 17:00:00 -10,0 -14,5 18 10 25 14 NNW 1013,8 50 0,0
20.02.2019 16:00:00 -7,3 -13,6 22 12 32 18 NNW 1012,1 82 0,0
20.02.2019 15:00:00 -6,4 -13,4 22 12 40 21 NNW 1010,7 82 0,0
20.02.2019 14:00:00 -6,2 -12,8 24 13 40 21 NNW 1009,2 10 0,0
20.02.2019 13:00:00 -6,5 -12,4 24 13 43 23 NNW 1007,8 10 0,0
20.02.2019 12:00:00 -6,8 -11,8 28 15 43 23 NNW 1006,2 10 0,0
20.02.2019 11:00:00 -7,5 -11,8 28 15 47 25 NNW 1004,7 10 0,0
20.02.2019 10:00:00 -8,1 -11,7 31 17 50 27 NNW 1002,8 10 0,0
20.02.2019 09:00:00 -9,0 -12,0 31 17 43 23 NNW 1000,9 10 0,0
20.02.2019 08:00:00 -9,5 -12,1 31 17 47 25 NNW 999,3 10 0,0
20.02.2019 07:00:00 -9,5 -12,0 35 19 50 27 NNW 997,7 10 0,0
20.02.2019 06:00:00 -9,0 -11,0 31 17 - - NNW - 10 -
20.02.2019 05:00:00 -8,7 -11,4 31 17 50 27 NNW 996,0 7 0,0
20.02.2019 04:00:00 -7,5 -8,9 29 16 50 27 NNW 992,7 2,4 0,3
20.02.2019 03:00:00 -7,4 -8,3 28 15 43 23 NNW 991,2 2,1 0,4
20.02.2019 02:00:00 -7,3 -8,2 24 13 40 21 NNW 989,5 1,4 0,7
20.02.2019 01:00:00 -7,2 -8,0 24 13 40 21 NNW 988,2 1,1 0,8
20.02.2019 00:00:00 -6,3 -7,0 16 9 32 18 N 986,6 0,6 1,0
19.02.2019 23:00:00 -4,6 -5,1 15 8 25 14 NNW 985,2 3,2 0,1
19.02.2019 22:00:00 -5,3 -5,8 4 2 7 4 - 983,9 0,1 0,0
19.02.2019 21:00:00 -5,3 -5,8 0 0 0 0 N 983,6 0,1 0,0
19.02.2019 20:00:00 -5,6 -6,2 2 1 7 4 - 984,2 0,3 0,0
19.02.2019 19:00:00 -5,6 -6,3 5 3 11 6 N 984,8 1,0 0,0
19.02.2019 18:00:00 -5,3 -5,8 0 0 4 2 N 985,4 3,0 0,0
19.02.2019 17:00:00 -4,7 -5,2 2 1 11 6 - 986,3 4,0 0,0
19.02.2019 16:00:00 -3,2 -3,6 2 1 7 4 - 986,8 10 0,0
19.02.2019 15:00:00 -2,1 -2,5 2 1 4 2 - 987,2 10 0,0
19.02.2019 14:00:00 -1,6 -2,0 0 0 4 2 N 987,6 10 0,0
19.02.2019 13:00:00 -4,7 -5,3 0 0 4 2 N 988,1 10 0,0
19.02.2019 12:00:00 -5,2 -5,9 0 0 4 2 N 988,7 10 0,0
19.02.2019 11:00:00 -4,8 -5,5 0 0 4 2 N 989,0 10 0,0
19.02.2019 10:00:00 -4,5 -5,0 0 0 7 4 N 989,5 10 0,0
19.02.2019 09:00:00 -6,6 -7,3 8 4 7 4 SSE 989,7 10 0,0
19.02.2019 08:00:00 -7,2 -8,0 4 2 7 4 ESE 989,9 10 0,0
19.02.2019 07:00:00 -7,9 -8,7 5 3 7 4 SE 989,9 10 0,0
19.02.2019 06:00:00 -8,1 -9,0 2 1 7 4 - 989,8 10 0,0
19.02.2019 05:00:00 -3,1 -3,5 0 0 7 4 N 990,4 10 0,0
19.02.2019 04:00:00 -1,7 -2,3 9 5 14 8 W 990,7 10 0,0
19.02.2019 03:00:00 -0,8 -1,2 8 4 14 8 WSW 991,0 10 0,0
19.02.2019 02:00:00 -0,8 -1,1 4 2 11 6 - 991,4 10 0,0
19.02.2019 01:00:00 -1,9 -2,2 2 1 14 8 - 992,0 10 0,0
19.02.2019 00:00:00 -0,7 -1,0 11 6 18 10 WSW 992,3 10 0,0
18.02.2019 23:00:00 -1,8 -1,9 2 1 11 6 - 992,8 10 0,0
18.02.2019 22:00:00 -1,9 -2,2 2 1 7 4 WSW 993,5 10 0,0
18.02.2019 21:00:00 -2,0 -2,3 5 3 14 8 SW 994,0 10 0,0
18.02.2019 20:00:00 -1,1 -1,4 5 3 14 8 WSW 994,4 10 0,0
18.02.2019 19:00:00 -0,3 -0,6 5 3 14 8 SW 994,5 10 0,0
18.02.2019 18:00:00 -0,2 -0,5 5 3 11 6 SSW 995,2 10 0,7
18.02.2019 17:00:00 -0,4 -0,7 5 3 11 6 SSW 996,5 2,1 0,4
18.02.2019 16:00:00 -0,5 -0,8 9 5 14 8 SSW 997,6 3,0 0,6
18.02.2019 15:00:00 -0,5 -0,8 11 6 22 12 S 998,8 1,2 2,0
18.02.2019 14:00:00 -0,7 -1,1 11 6 18 10 S 1000,1 1,5 1,0
18.02.2019 13:00:00 -1,1 -1,5 11 6 22 12 SSW 1001,8 1,8 1,0
18.02.2019 12:00:00 -1,4 -1,8 16 9 32 18 S 1003,2 1,6 1,0
18.02.2019 11:00:00 -1,9 -2,3 24 13 43 23 S 1004,4 1,5 1,0
18.02.2019 10:00:00 -1,8 -2,4 28 15 43 23 S 1005,4 1,6 0,5
18.02.2019 09:00:00 -1,7 -2,3 31 17 50 27 S 1007,1 1,6 0,6
18.02.2019 08:00:00 -1,6 -2,3 29 16 43 23 S 1008,1 3,0 0,2
18.02.2019 07:00:00 -2,0 -2,6 24 13 40 21 S 1009,9 2,0 1,0
18.02.2019 06:00:00 -2,3 -3,1 21 11 40 21 S 1011,5 2,5 0,6
18.02.2019 05:00:00 -1,2 -5,1 21 11 32 18 S 1012,7 10 0,0
18.02.2019 04:00:00 -1,7 -4,4 16 9 25 14 S 1013,9 10 0,0
18.02.2019 03:00:00 -2,1 -4,4 15 8 25 14 S 1015,0 10 0,0
18.02.2019 02:00:00 -2,5 -4,4 11 6 22 12 S 1016,4 10 0,0
18.02.2019 01:00:00 -2,7 -5,2 13 7 22 12 S 1017,1 10 0,0
18.02.2019 00:00:00 -4,9 -6,0 8 4 14 8 S 1017,8 10 0,0
17.02.2019 23:00:00 -9,1 -11,0 8 4 11 6 SE 1018,6 10 0,0
17.02.2019 22:00:00 -10,0 -11,6 0 0 7 4 N 1018,9 10 0,0
17.02.2019 21:00:00 -9,1 -11,3 5 3 7 4 SE 1019,1 10 0,0
17.02.2019 20:00:00 -9,4 -11,3 0 0 0 0 N 1019,1 10 0,0
17.02.2019 19:00:00 -8,3 -10,7 0 0 0 0 N 1019,1 10 0,0
17.02.2019 18:00:00 -7,4 -10,4 0 0 0 0 N 1018,9 10 0,0
17.02.2019 17:00:00 -5,3 -9,6 0 0 4 2 N 1018,6 10 0,0
17.02.2019 16:00:00 -4,6 -9,2 0 0 7 4 N 1018,2 10 0,0
17.02.2019 15:00:00 -2,0 -8,7 5 3 18 10 NNW 1017,8 10 0,0
17.02.2019 14:00:00 -1,8 -8,3 11 6 25 14 NNW 1017,1 10 0,0
17.02.2019 13:00:00 0,3 -7,7 16 9 25 14 NNW 1016,4 10 0,0
17.02.2019 12:00:00 0,5 -7,5 16 9 29 16 NNW 1015,6 10 0,0
17.02.2019 11:00:00 -1,0 -7,1 18 10 29 16 NW 1014,4 10 0,0
17.02.2019 10:00:00 -1,2 -7,5 24 13 32 18 NW 1013,1 10 0,0
17.02.2019 09:00:00 -0,7 -7,9 21 11 25 14 NW 1011,5 10 0,0
17.02.2019 08:00:00 -2,0 -7,9 21 11 32 18 NW 1009,5 10 0,0
17.02.2019 07:00:00 -2,6 -7,6 22 12 29 16 NW 1007,7 10 0,0
17.02.2019 06:00:00 -1,3 -7,0 26 14 32 18 NW 1006,4 10 0,0
17.02.2019 05:00:00 -0,2 -6,6 26 14 47 25 NNW 1004,8 10 0,0
17.02.2019 04:00:00 0,6 -6,3 35 19 54 29 NW 1003,0 10 0,0
17.02.2019 03:00:00 1,0 -5,9 37 20 61 33 NW 1000,7 10 0,0
17.02.2019 02:00:00 1,9 -5,0 52 28 86 47 NW 998,0 10 0,0
17.02.2019 01:00:00 2,9 -5,2 59 32 86 47 NW 995,1 10 0,0
17.02.2019 00:00:00 3,0 -5,6 46 25 76 41 NW 993,1 10 0,0
16.02.2019 23:00:00 3,0 -5,4 52 28 72 39 WNW 990,9 10 0,0
16.02.2019 22:00:00 3,2 -5,7 42 23 68 37 WNW 989,5 10 0,0
16.02.2019 21:00:00 3,6 -5,9 46 25 76 41 WNW 988,4 10 0,0
16.02.2019 20:00:00 4,3 -5,7 48 26 76 41 WNW 986,8 10 0,0
16.02.2019 19:00:00 4,2 -4,5 35 19 72 39 W 986,0 10 0,0
16.02.2019 18:00:00 3,7 -5,5 34 18 68 37 W 986,1 10 0,0
16.02.2019 17:00:00 3,8 -6,5 26 14 47 25 W 987,2 10 0,0
16.02.2019 16:00:00 4,2 -7,0 24 13 43 23 WSW 987,9 10 0,0
16.02.2019 15:00:00 4,7 -6,8 18 10 50 27 W 989,0 10 0,0
16.02.2019 14:00:00 5,3 -6,6 31 17 47 25 W 990,1 10 0,0
16.02.2019 13:00:00 6,1 -6,2 26 14 58 31 W 990,3 10 0,0
16.02.2019 12:00:00 6,4 -5,3 35 19 58 31 W 990,8 10 0,0
16.02.2019 11:00:00 7,2 -2,0 26 14 47 25 W 991,0 10 0,0
16.02.2019 10:00:00 7,6 -0,6 24 13 40 21 W 991,6 10 0,0
16.02.2019 09:00:00 1,1 -0,1 2 1 18 10 - 992,3 10 0,0
16.02.2019 08:00:00 1,0 0,0 11 6 22 12 S 992,4 10 0,0
16.02.2019 07:00:00 1,3 0,1 16 9 25 14 S 993,8 10 0,0
16.02.2019 06:00:00 1,7 0,5 13 7 32 18 S 994,4 10 0,0
16.02.2019 05:00:00 2,1 0,8 15 8 32 18 S 995,7 10 0,0
16.02.2019 04:00:00 1,1 0,1 9 5 18 10 S 997,7 10 0,0
16.02.2019 03:00:00 1,5 0,3 13 7 18 10 S 999,5 10 0,0
16.02.2019 02:00:00 1,3 0,0 16 9 22 12 S 1001,6 10 0,0
16.02.2019 01:00:00 1,6 0,0 13 7 18 10 S 1002,8 10 0,0
16.02.2019 00:00:00 1,7 -0,6 5 3 11 6 SE 1004,3 10 0,0
15.02.2019 23:00:00 0,6 -0,9 8 4 11 6 SE 1005,3 10 0,0
15.02.2019 22:00:00 0,0 -1,4 5 3 11 6 ESE 1006,1 10 0,0
15.02.2019 21:00:00 2,9 -2,2 0 0 7 4 N 1006,7 10 0,0
15.02.2019 20:00:00 3,4 -2,6 8 4 14 8 WSW 1007,5 10 0,0
15.02.2019 19:00:00 3,0 -2,7 4 2 11 6 WSW 1007,5 10 0,0
15.02.2019 18:00:00 3,8 -2,8 9 5 22 12 WSW 1007,6 10 0,0
15.02.2019 17:00:00 3,8 -3,3 11 6 18 10 W 1007,7 10 0,0
15.02.2019 16:00:00 3,8 -3,7 11 6 18 10 WSW 1007,7 10 0,0
15.02.2019 15:00:00 5,3 -3,8 13 7 18 10 WNW 1007,1 10 0,0

tt = Température de l'air
td = dewpoint
ff = Vitesse du vent
fx = gusts
dd = Direction du vent
ppp = reduced air pressure
vv = visibility
rr = Quantités de précipitations

stations d'obs. à proximité